Weather History for Bartow, FL

Change the Weather History Date:

Monday, March 19, 2012

  Actual Average Record
Temperature  
Mean Temperature 68 °F -  
Max Temperature 82 °F 81 °F 92 °F (1945)
Min Temperature 53 °F 54 °F 38 °F (1978)
Cooling Degree Days 2    
Growing Degree Days 18 (Base 50)    
Moisture  
Dew Point 56 °F    
Average Humidity 71    
Maximum Humidity 100    
Minimum Humidity 37    
Precipitation  
Precipitation 0.00 in - - ()
Sea Level Pressure  
Sea Level Pressure 30.15 in    
Wind  
Wind Speed 4 mph (East)    
Max Wind Speed 14 mph    
Max Gust Speed 21 mph    
Visibility 10 miles    
Events Fog    
Averages and records for this station are not official NWS values.
T = Trace of Precipitation, MM = Missing Value Source: NWS Daily Summary

Daily Weather History Graph

Daily Weather History Graph

Search for Another Location

Airport:

Trip Planner

Search our weather history database for the weather conditions in past years. The results will help you decide how hot, cold, wet, or windy it might be!

Date:

Astronomy

Mar. 19, 2012 Rise Set
Actual Time 7:31 AM EDT 7:38 PM EDT
Civil Twilight 7:08 AM EDT 8:01 PM EDT
Nautical Twilight 6:40 AM EDT 8:28 PM EDT
Astronomical Twilight 6:13 AM EDT 8:56 PM EDT
Moon 5:30 AM EDT (3/19) 5:15 PM EDT (3/19)
Length of Visible Light 12h 53m
Length of Day
12h 06m
Waning Crescent, 8% of the Moon is Illuminated
Mar 19
Waning Crescent
Mar 22
New
Mar 30
First Quarter
Apr 6
Full
Apr 13
Last Quarter

Hourly Weather History & Observations

Time (EDT) Temp. Heat Index Dew Point Humidity Pressure Visibility Wind Dir Wind Speed Gust Speed Precip Events Conditions
12:15 AM 62.6 °F - 60.8 °F 94% 30.20 in 10.0 mi East 3.5 mph - N/A   Clear
12:35 AM 62.6 °F - 60.8 °F 94% 30.20 in 10.0 mi Calm Calm - N/A   Clear
12:55 AM 62.6 °F - 60.8 °F 94% 30.19 in 10.0 mi Calm Calm - N/A   Clear
1:15 AM 60.8 °F - 60.8 °F 100% 30.19 in 10.0 mi Calm Calm - N/A   Clear
1:35 AM 60.8 °F - 59.0 °F 94% 30.19 in 10.0 mi Calm Calm - N/A   Clear
2:15 AM 59.0 °F - 57.2 °F 94% 30.19 in 10.0 mi Calm Calm - N/A   Clear
2:35 AM 59.0 °F - 57.2 °F 94% 30.19 in 9.0 mi Calm Calm - N/A   Clear
3:15 AM 60.8 °F - 57.2 °F 88% 30.18 in 10.0 mi Calm Calm - N/A   Clear
3:35 AM 57.2 °F - 55.4 °F 94% 30.17 in 10.0 mi Calm Calm - N/A   Clear
3:55 AM 57.2 °F - 55.4 °F 94% 30.17 in 10.0 mi Calm Calm - N/A   Clear
4:15 AM 57.2 °F - 55.4 °F 94% 30.17 in 10.0 mi Calm Calm - N/A   Clear
4:35 AM 57.2 °F - 57.2 °F 100% 30.16 in 10.0 mi Calm Calm - N/A   Clear
4:55 AM 55.4 °F - 55.4 °F 100% 30.17 in 10.0 mi Calm Calm - N/A   Clear
5:15 AM 55.4 °F - 55.4 °F 100% 30.17 in 7.0 mi Calm Calm - N/A   Clear
5:35 AM 55.4 °F - 53.6 °F 94% 30.16 in 10.0 mi East 3.5 mph - N/A   Clear
5:55 AM 55.4 °F - 55.4 °F 100% 30.17 in 0.8 mi Calm Calm - N/A   Mist
6:15 AM 57.2 °F - 57.2 °F 100% 30.17 in 4.0 mi Calm Calm - N/A   Clear
6:35 AM 55.4 °F - 55.4 °F 100% 30.17 in 1.5 mi Calm Calm - N/A   Clear
7:15 AM 55.4 °F - 55.4 °F 100% 30.19 in 7.0 mi Calm Calm - N/A   Clear
7:30 AM 53.6 °F - 53.6 °F 100% 30.20 in 5.0 mi ENE 3.5 mph - N/A   Partly Cloudy
7:50 AM 55.4 °F - 55.4 °F 100% 30.20 in 6.0 mi Calm Calm - N/A Fog Patches of Fog
8:50 AM 60.8 °F - 60.8 °F 100% 30.21 in 12.0 mi Calm Calm - N/A   Partly Cloudy
9:53 AM 71.6 °F - 60.8 °F 69% 30.22 in 15.0 mi ESE 9.2 mph - N/A   Clear
10:54 AM 73.4 °F - 57.2 °F 57% 30.22 in 15.0 mi East 13.8 mph - N/A   Partly Cloudy
11:55 AM 77.0 °F - 57.2 °F 50% 30.21 in 10.0 mi East 9.2 mph - N/A   Scattered Clouds
12:50 PM 78.8 °F - 55.4 °F 44% 30.19 in 15.0 mi ESE 11.5 mph - N/A   Scattered Clouds
1:54 PM 80.6 °F 80.5 °F 55.4 °F 42% 30.15 in 15.0 mi East 9.2 mph - N/A   Scattered Clouds
2:50 PM 82.4 °F 81.7 °F 55.4 °F 39% 30.12 in 15.0 mi ESE 13.8 mph - N/A   Mostly Cloudy
2:55 PM 82.4 °F 81.7 °F 55.4 °F 39% 30.12 in 10.0 mi ENE 10.4 mph 18.4 mph N/A   Clear
3:15 PM 80.6 °F 80.5 °F 55.4 °F 42% 30.12 in 10.0 mi East 13.8 mph 18.4 mph N/A   Clear
3:35 PM 80.6 °F 80.5 °F 55.4 °F 42% 30.11 in 9.0 mi East 12.7 mph 19.6 mph N/A   Clear
3:55 PM 80.6 °F 80.5 °F 55.4 °F 42% 30.10 in 10.0 mi ESE 10.4 mph 16.1 mph N/A   Clear
4:15 PM 82.4 °F 81.7 °F 55.4 °F 39% 30.10 in 5.0 mi East 12.7 mph 20.7 mph N/A   Haze
4:35 PM 80.6 °F 80.5 °F 55.4 °F 42% 30.09 in 10.0 mi East 11.5 mph - N/A   Clear
4:55 PM 82.4 °F 81.4 °F 53.6 °F 37% 30.09 in 10.0 mi East 12.7 mph 18.4 mph N/A   Clear
5:15 PM 80.6 °F 80.3 °F 53.6 °F 39% 30.09 in 10.0 mi East 12.7 mph - N/A   Clear
5:35 PM 80.6 °F 80.3 °F 53.6 °F 39% 30.09 in 10.0 mi East 10.4 mph - N/A   Clear
5:55 PM 80.6 °F 80.3 °F 53.6 °F 39% 30.09 in 10.0 mi East 13.8 mph - N/A   Clear
6:15 PM 80.6 °F 80.3 °F 53.6 °F 39% 30.09 in 10.0 mi East 11.5 mph - N/A   Clear
6:35 PM 78.8 °F - 53.6 °F 42% 30.09 in 10.0 mi East 12.7 mph 17.3 mph N/A   Clear
6:55 PM 78.8 °F - 53.6 °F 42% 30.10 in 10.0 mi East 9.2 mph 16.1 mph N/A   Partly Cloudy
7:35 PM 75.2 °F - 55.4 °F 50% 30.11 in 10.0 mi East 9.2 mph - N/A   Clear
8:15 PM 73.4 °F - 55.4 °F 53% 30.12 in 10.0 mi East 8.1 mph - N/A   Clear
8:35 PM 71.6 °F - 55.4 °F 57% 30.13 in 10.0 mi East 9.2 mph - N/A   Clear
8:55 PM 71.6 °F - 55.4 °F 57% 30.13 in 10.0 mi East 8.1 mph - N/A   Clear
9:15 PM 69.8 °F - 55.4 °F 60% 30.14 in 10.0 mi East 8.1 mph - N/A   Clear
9:35 PM 69.8 °F - 57.2 °F 64% 30.15 in 10.0 mi East 8.1 mph - N/A   Clear
9:55 PM 68.0 °F - 57.2 °F 68% 30.15 in 10.0 mi East 5.8 mph - N/A   Clear
10:15 PM 66.2 °F - 57.2 °F 73% 30.15 in 10.0 mi East 5.8 mph - N/A   Clear
10:35 PM 66.2 °F - 57.2 °F 73% 30.15 in 10.0 mi East 5.8 mph - N/A   Clear
10:55 PM 66.2 °F - 57.2 °F 73% 30.16 in 10.0 mi East 5.8 mph - N/A   Clear
11:15 PM 64.4 °F - 59.0 °F 83% 30.15 in 10.0 mi East 6.9 mph - N/A   Clear
11:35 PM 64.4 °F - 59.0 °F 83% 30.15 in 10.0 mi East 6.9 mph - N/A   Clear
11:55 PM 64.4 °F - 59.0 °F 83% 30.15 in 10.0 mi East 6.9 mph - N/A   Clear